SCP
0 0 0 0 0 0 0 0 0 0 0 0 0 0 0 0 0 0 0 0 0 0 0 0 0 0 0 0 0 0 0 0 0 0 0 0 0 0 0 0 0 0 0 0 0 0 0
0 0 0 0 0 0 0 0 0 0 0 0 0 0 0 0 0 0 0 0 0 0 0 0 0 0 0 0 -0 0 0 0 0 0 0 0 0 0 0 0 0 0 0 0 0 0 0
0 0 0 0 0 0 0 0 0 0 0 0 0 0 0 0 0 0 0 0 0 0 0 0 0 0 0 0 0 0 0 -0 0 -0 0 0 0 0 0 0 0 0 0 0 0 0 0
0 0 0 -0 0 0 0 0 0 0 0 0 0 0 0 0 0 0 0 0 0 0 0 0 0 0 0 -0 -0 0 0 0 0 0 0 0 0 0 0 0 0 0 0 0 0 0 0
0 0 0 0 0 0 0 0 0 0 0 0 0 0 0 0 0 0 0 0 0 0 0 0 0 0 0 -0 0 0 0 0 0 0 0 0 0 0 0 0 0 0 0 0 0 0 0
0 0 0 0 0 0 0 0 0 0 0 0 0 0 0 0 0 0 0 0 0 0 0 0 0 0 0 0 -0 0 0 0 0 0 0 0 0 0 0 0 0 0 0 0 0 0 0
0 0 0 0 0 0 0 0 0 0 0 0 0 0 0 0 0 0 0 0 0 0 0 0 0 0 0 0 0 0 0 0 0 0 0 0 0 0 0 0 0 0 0 0 0 0 0
0 0 0 0 0 0 0 0 0 0 0 0 0 0 0 0 0 0 0 0 0 0 0 0 0 0 0 0 0 0 0 0 0 0 0 0 0 0 0 0 0 0 0 0 0 0 0
0 0 0 0 0 0 0 0 0 0 0 0 0 0 0 0 0 0 0 0 0 0 0 0 0 0 0 0 0 0 0 0 0 0 0 0 0 0 0 0 0 0 0 0 0 0 0
0 0 0 0 0 0 0 0 0 0 0 0 0 0 0 0 0 0 0 0 0 0 0 0 0 0 0 0 0 0 -0 0 0 0 0 0 0 0 0 0 0 0 0 0 0 0 0
0 0 0 0 0 0 0 0 0 0 0 0 0 0 0 0 0 0 0 0 0 0 0 0 0 0 0 0 0 0 0 0 0 0 0 0 0 0 0 0 -0 -0 -0 -0 -0 0 0
0 0 0 0 0 0 0 0 0 0 0 0 0 0 0 0 0 0 0 0 0 0 0 0 0 0 0 0 0 0 0 0 0 0 0 0 -0 -0 -0 -0 -0 -0 -0 0 -0 -0 0
-0 0 0 0 0 0 0 0 0 0 0 0 0 0 0 0 0 0 0 0 0 0 0 0 0 0 0 0 0 0 0 0 0 0 0 0 0 -0 -0 -0 -0 -0 -0 -0 -0 -0 0
-0 0 0 0 0 0 0 0 0 0 0 0 0 0 0 0 0 0 0 0 0 0 0 0 0 0 0 0 0 0 0 0 0 0 0 -0 -0 -0 -0 -0 -0 -0 -0 -0 -0 -0 0
-0 0 0 0 0 0 0 0 0 0 0 0 0 0 0 0 0 0 0 0 0 0 0 0 0 0 0 0 0 0 0 0 0 -0 0 -0 -0 -0 -0 -0 -0 -0 -0 0 0 0 0
-0 0 0 0 0 0 0 0 0 0 0 0 0 0 0 0 0 0 0 0 0 0 0 0 0 0 0 0 0 0 0 0 0 -0 -0 -0 -0 -0 -0 -0 0 0 0 0 0 0 0
0 0 0 0 0 0 0 0 0 0 0 0 0 0 0 0 0 0 0 0 0 0 0 0 0 0 0 0 0 0 0 0 -0 -0 -0 -0 -0 -0 -0 0 0 0 0 0 0 0 0
0 0 0 0 0 0 0 0 0 0 0 0 0 0 0 0 0 0 0 0 0 0 0 0 0 0 0 0 0 0 0 0 0 -0 -0 -0 -0 -0 0 0 0 0 0 0 0 0 0
0 0 0 0 0 0 0 0 0 0 0 0 0 0 0 0 0 0 0 0 0 0 0 0 0 0 0 0 0 0 0 0 0 0 0 -0 -0 0 0 0 0 0 0 0 0 0 0
0 0 0 0 0 0 0 0 0 0 0 0 0 0 0 0 0 0 0 0 0 0 0 0 0 0 0 0 0 0 0 0 -0 -0 -0 0 0 0 0 0 0 0 0 0 0 0 0
0 0 0 0 0 0 0 0 0 0 0 0 0 0 0 0 0 0 0 0 0 0 0 0 0 0 0 0 0 0 0 0 0 -0 0 -0 0 0 0 0 0 0 0 0 0 0 0
0 0 0 0 0 0 0 0 0 0 0 0 0 0 0 0 0 0 0 0 0 0 0 0 0 0 0 0 0 0 0 0 0 -0 -0 -0 0 0 0 0 0 0 0 0 0 0 0
0 0 0 0 0 0 0 0 0 0 0 0 0 0 0 0 0 0 0 0 0 0 0 0 0 0 0 0 0 0 0 0 0 -0 0 0 0 0 0 0 0 0 0 0 0 0 0
0 0 0 0 0 0 0 0 0 0 0 0 0 0 0 0 0 0 0 0 0 0 0 0 0 0 0 0 0 0 0 0 0 0 0 0 0 0 0 0 0 0 0 0 0 0 0
0 0 0 0 0 0 0 0 0 0 0 0 0 0 0 0 0 0 0 0 0 0 0 0 0 0 0 0 0 0 0 0 0 0 0 0 0 0 0 0 0 0 0 0 0 0 0
0 0 0 0 0 0 0 0 0 0 0 0 0 0 0 0 0 0 0 0 0 0 0 0 0 0 0 0 0 0 0 0 0 0 0 0 0 0 0 0 0 0 0 0 0 0 0
0 0 0 0 0 0 0 0 0 0 0 0 0 0 0 0 0 0 0 0 0 0 0 0 0 0 0 0 0 0 0 0 0 0 0 0 0 0 0 0 0 0 0 0 0 0 0
0 0 0 0 0 0 0 0 0 0 0 0 0 0 0 0 0 0 0 0 0 0 0 0 0 0 0 0 0 0 0 0 0 0 0 0 0 0 0 0 0 0 0 0 0 0 0
0 0 0 0 0 0 0 0 0 0 0 0 0 0 0 0 0 0 0 0 0 0 0 0 0 0 0 0 0 0 0 0 0 0 0 0 0 0 0 0 0 0 0 0 0 0 0
Wind_Speed_500mb
70 74 80 74 83 77 69 68 66 68 64 57 52 41 35 29 22 16 11 6 2 3 6 7 7 7 5 15 16 23 29 29 32 33 32 25 32 12 9 8 17 18 23 38 43 55 55
69 73 74 82 77 83 77 69 70 66 65 60 52 47 39 31 24 20 15 9 5 2 3 7 8 7 9 14 18 23 28 29 32 29 26 28 18 19 18 9 13 9 35 29 27 43 28
69 71 73 79 84 85 82 75 74 68 66 64 57 50 43 35 30 24 20 12 6 3 5 6 6 7 24 20 20 23 28 29 27 23 16 23 20 9 10 11 13 16 15 23 36 8 11
68 70 74 76 83 88 92 79 74 72 68 66 59 52 45 40 33 24 18 11 5 2 3 4 5 8 14 14 19 24 31 20 18 18 24 23 22 32 15 13 12 8 6 5 22 27 20
72 70 72 76 82 73 77 89 79 77 70 67 63 55 49 42 34 26 19 12 6 3 4 5 6 11 11 9 26 35 28 24 17 28 29 26 31 25 13 9 8 12 6 5 7 37 4
65 69 73 78 80 76 88 92 84 79 74 68 65 60 52 44 35 28 21 14 8 5 6 11 17 12 12 22 22 32 17 29 16 12 15 20 21 17 16 11 8 5 5 7 10 11 35
64 68 75 80 83 84 83 91 93 84 78 68 67 64 55 46 39 32 24 17 9 10 30 18 20 30 14 6 29 38 25 13 22 26 9 23 24 21 18 15 8 7 7 13 8 14 18
54 75 71 81 85 79 83 97 99 90 80 73 71 66 59 50 42 34 29 13 11 19 29 24 27 25 14 12 10 47 35 18 24 17 7 14 26 10 5 20 16 13 12 16 15 12 10
74 80 65 79 89 87 91 77 105 93 87 78 71 68 62 53 45 38 33 20 20 22 15 14 17 18 16 20 20 35 23 19 25 33 30 22 6 7 7 27 26 9 17 14 4 10 10
109 72 72 82 91 89 89 83 109 100 91 80 75 71 64 57 46 42 35 27 23 19 9 6 5 7 8 7 12 33 18 6 10 8 8 17 14 13 18 16 17 6 21 13 9 17 5
102 73 76 85 93 94 92 88 104 102 94 86 79 74 68 60 41 49 35 30 22 14 4 2 6 9 19 14 3 29 18 40 13 7 4 6 12 22 17 13 8 7 18 9 15 14 11
87 84 74 89 100 99 97 97 108 103 96 89 83 79 73 66 43 47 37 32 26 9 5 5 7 6 9 21 13 12 22 24 16 20 22 5 4 9 14 7 6 17 4 10 10 5 6
95 97 77 89 96 100 103 108 103 107 100 91 83 77 71 65 46 50 43 37 8 6 3 9 7 7 10 7 9 12 10 13 6 8 9 7 14 6 16 5 12 19 6 4 5 7 3
92 99 73 90 96 103 105 107 110 116 103 96 93 83 74 63 46 53 54 8 7 5 7 6 9 13 8 3 6 4 6 7 11 7 7 4 6 16 25 7 3 14 9 5 4 5 6
106 81 67 108 119 110 109 112 121 114 105 105 96 85 76 61 52 59 46 6 12 12 14 17 10 8 4 5 7 5 6 5 2 2 7 9 5 4 10 14 4 6 13 2 5 5 4
107 76 74 101 120 118 110 102 132 122 114 112 107 83 69 62 59 59 9 9 6 9 16 9 8 3 8 8 5 5 3 3 6 1 3 10 9 2 3 5 24 17 6 2 6 7 5
116 70 87 98 120 124 114 112 128 125 116 115 100 45 64 60 60 35 9 8 8 11 16 7 8 9 8 10 7 5 6 3 8 6 10 9 2 3 3 7 2 6 5 12 7 3 4
96 52 86 107 117 129 118 118 142 128 125 120 76 9 60 67 17 6 9 12 12 11 10 9 11 10 9 8 7 5 9 6 16 20 5 4 6 6 5 3 10 7 6 4 3 1 3
89 70 103 105 136 128 119 120 128 138 143 101 51 24 60 68 10 7 4 7 7 9 8 6 7 7 5 10 9 8 7 7 19 12 10 13 3 7 6 6 3 3 7 8 8 4 7
95 80 116 110 114 119 121 111 145 148 135 99 40 10 21 23 13 20 14 8 10 10 9 13 13 13 10 7 7 9 9 9 14 7 12 10 5 7 5 4 5 5 8 9 3 4 8
95 77 82 98 113 124 120 113 139 137 125 100 24 10 22 14 10 18 9 9 13 10 9 15 6 10 14 9 8 9 7 9 7 17 6 3 5 4 4 5 7 5 9 14 10 7 10
82 75 105 106 116 125 116 111 130 147 123 75 29 25 21 24 45 28 8 12 13 10 12 9 15 15 9 14 14 18 16 8 8 10 6 4 7 4 4 4 2 11 14 14 13 7 14
81 63 110 102 117 114 112 104 135 150 116 69 46 62 57 20 20 21 15 17 15 28 8 20 36 15 9 12 20 43 22 26 20 15 9 6 10 6 5 6 5 6 10 15 8 10 9
83 73 117 103 111 109 109 100 140 148 107 70 75 75 29 8 18 19 20 16 26 11 17 18 44 16 14 40 50 41 31 20 16 9 12 10 7 3 4 2 3 4 8 6 15 15 20
82 84 106 105 104 105 101 115 139 125 97 74 75 62 28 10 25 17 38 22 39 31 16 22 14 26 70 52 13 10 5 3 7 4 8 5 6 5 4 4 9 5 9 11 12 10 16
85 78 94 101 100 101 93 103 136 119 91 85 77 54 33 37 25 33 24 56 15 10 7 10 39 75 40 12 5 9 11 10 10 8 9 8 6 4 4 5 9 8 8 17 12 8 15
79 80 93 95 96 97 92 101 112 85 84 78 54 44 35 23 38 67 26 38 41 21 11 16 38 19 24 4 4 6 7 6 14 18 13 8 3 10 5 8 11 12 20 26 6 4 19
81 86 94 94 92 99 92 102 122 86 79 72 57 41 31 24 40 43 35 56 45 41 15 44 18 8 6 5 6 7 6 9 6 10 13 18 14 8 6 7 14 27 23 14 12 13 17
87 86 85 92 97 100 107 101 122 84 76 64 59 46 35 35 32 32 40 50 39 51 58 54 15 40 21 7 3 6 5 4 8 8 3 11 11 10 18 11 7 65 26 33 19 22 19
Wind_Direction_500mb
230 228 229 233 213 210 212 211 210 205 203 205 200 200 198 200 197 194 196 205 210 51 11 7 356 2 38 71 47 15 13 4 353 1 15 28 49 76 96 81 76 84 95 82 90 84 92
232 228 228 231 229 210 207 209 210 208 204 202 199 197 196 194 192 191 193 194 187 120 44 10 355 8 77 78 31 12 10 359 357 13 26 46 65 90 90 75 63 78 108 117 86 83 80
232 230 225 227 233 209 207 207 207 209 205 200 198 195 193 192 196 194 194 180 146 28 21 7 341 59 82 82 30 359 359 5 0 18 48 70 67 87 101 95 75 113 82 100 30 5 144
232 229 225 223 224 211 207 205 205 208 207 200 197 195 192 191 193 194 186 168 157 139 10 334 25 95 85 70 23 345 13 43 41 46 88 83 87 67 67 106 48 68 65 64 18 10 21
231 227 225 222 221 219 214 202 203 204 207 202 194 193 193 191 191 188 175 170 152 68 360 20 73 117 93 32 14 16 20 43 72 82 89 98 65 57 46 89 81 29 85 45 89 16 75
230 230 223 220 217 215 218 204 200 202 203 201 195 191 192 189 188 183 173 163 137 82 85 87 83 84 62 42 26 20 44 42 54 136 72 53 64 72 46 50 64 37 61 67 63 52 76
232 224 224 218 216 217 210 210 195 198 199 200 195 191 189 186 185 178 170 154 148 93 73 72 89 94 107 52 33 31 27 33 67 72 73 28 81 59 42 38 55 87 83 78 119 141 76
234 221 225 216 217 213 213 205 196 195 196 198 195 190 185 184 181 177 171 183 159 137 94 80 86 84 77 50 29 29 45 73 50 82 51 75 58 360 23 52 56 66 81 57 74 130 90
232 221 225 213 215 212 212 205 196 191 193 195 194 189 183 181 178 178 177 174 151 136 84 54 66 69 67 73 45 12 42 85 63 69 67 78 14 357 36 43 28 49 51 351 309 125 96
238 227 218 216 214 211 210 206 193 190 189 192 193 188 181 177 176 179 182 175 167 160 82 327 20 55 34 98 60 26 35 82 55 86 63 63 10 36 40 47 8 61 0 327 199 179 105
235 231 214 219 212 207 204 204 194 187 185 191 188 185 181 180 179 180 180 172 163 149 95 175 60 86 70 94 173 21 43 67 77 65 148 76 29 29 35 14 358 332 333 20 135 109 132
242 233 214 214 209 203 198 201 191 185 186 188 183 181 179 179 179 175 170 160 145 55 225 128 124 133 79 45 40 47 58 82 80 68 62 70 34 40 356 10 50 325 95 68 79 83 72
252 227 217 219 207 197 196 199 192 185 186 186 180 180 180 178 175 169 160 151 69 135 11 167 150 106 90 48 58 41 49 38 49 96 57 29 35 8 23 49 31 34 57 26 45 25 33
244 223 215 213 210 194 193 195 191 184 182 183 176 178 179 179 171 168 161 79 112 159 175 131 117 95 89 85 62 59 94 71 52 68 100 81 40 11 343 32 8 45 54 82 88 352 336
237 221 207 209 197 190 191 192 184 182 181 180 169 174 176 173 172 170 165 98 189 202 153 136 105 105 110 95 120 92 52 106 60 57 123 131 103 315 45 33 299 42 53 60 90 59 258
226 229 208 207 191 187 186 187 180 180 181 174 166 165 172 171 171 170 116 152 130 164 120 122 119 142 142 150 111 85 146 250 129 311 138 167 117 244 289 290 44 72 98 123 46 22 340
222 220 211 207 191 185 185 185 183 178 179 173 159 144 168 171 166 164 152 181 155 150 127 118 127 114 133 135 127 125 136 168 170 102 84 147 97 134 236 35 46 37 63 66 104 6 336
222 201 208 198 197 186 185 189 183 180 176 167 154 110 161 160 127 139 149 160 132 132 108 99 99 111 129 134 113 130 159 193 164 146 129 175 120 107 99 101 125 106 118 98 95 176 67
226 211 204 196 180 181 183 188 185 181 177 161 135 102 160 164 137 153 128 108 120 131 136 132 115 104 115 131 117 128 130 152 153 148 170 185 47 118 145 150 151 120 135 107 94 92 194
219 205 191 197 177 179 180 183 183 176 172 156 132 118 156 186 151 141 139 157 114 95 102 100 112 98 123 102 51 137 129 167 167 140 142 134 100 173 151 155 146 155 168 158 155 194 151
206 191 189 190 182 179 180 186 184 174 171 160 141 132 155 171 194 148 123 135 126 133 120 133 87 154 138 115 110 129 141 118 111 151 114 116 126 199 86 273 200 214 206 175 196 178 216
196 183 192 185 179 175 178 180 180 179 166 169 130 142 129 142 141 135 120 189 142 137 140 174 139 144 131 148 174 175 144 155 173 180 156 127 151 157 114 47 96 258 244 211 219 189 257
188 183 186 188 181 176 174 181 186 170 169 166 150 147 153 147 151 150 179 160 169 129 43 165 143 124 127 165 172 163 142 153 165 152 155 160 164 160 184 243 332 262 221 201 201 199 203
180 188 182 179 178 176 175 180 183 171 171 167 154 152 129 151 167 169 139 140 152 147 134 143 147 113 143 127 115 113 102 109 136 134 150 152 149 120 173 211 199 173 177 204 220 246 216
178 184 177 175 175 176 172 177 178 170 171 173 163 157 140 116 148 114 140 120 118 104 91 135 125 145 138 121 96 95 35 70 213 196 177 190 148 119 186 238 307 202 184 185 192 276 235
177 175 172 172 173 174 172 174 181 168 163 159 159 164 139 121 207 160 136 150 133 119 80 105 134 140 151 95 97 157 177 182 176 169 79 100 69 124 175 240 221 209 178 165 137 267 219
172 172 170 172 173 173 174 178 180 160 155 165 140 146 145 105 152 162 161 163 146 124 104 128 151 140 160 99 124 165 188 173 169 175 166 171 162 199 181 254 275 211 153 150 184 218 212
172 165 167 172 176 177 179 172 171 155 149 155 142 146 150 100 147 172 161 160 144 143 143 151 122 193 108 121 156 181 164 201 181 168 168 177 168 185 151 214 262 164 139 195 203 207 246
163 166 167 170 175 176 178 169 177 158 140 149 139 134 140 119 143 163 175 180 181 172 142 165 160 156 161 106 181 130 153 176 181 203 135 203 196 178 201 215 211 175 183 202 214 229 252
Wind_Speed_850mb
70 74 80 74 83 77 69 68 66 68 64 57 52 41 35 29 22 16 11 6 2 3 6 7 7 7 5 15 16 23 29 29 32 33 32 25 32 12 9 8 17 18 23 38 43 55 55
69 73 74 82 77 83 77 69 70 66 65 60 52 47 39 31 24 20 15 9 5 2 3 7 8 7 9 14 18 23 28 29 32 29 26 28 18 19 18 9 13 9 35 29 27 43 28
69 71 73 79 84 85 82 75 74 68 66 64 57 50 43 35 30 24 20 12 6 3 5 6 6 7 24 20 20 23 28 29 27 23 16 23 20 9 10 11 13 16 15 23 36 8 11
68 70 74 76 83 88 92 79 74 72 68 66 59 52 45 40 33 24 18 11 5 2 3 4 5 8 14 14 19 24 31 20 18 18 24 23 22 32 15 13 12 8 6 5 22 27 20
72 70 72 76 82 73 77 89 79 77 70 67 63 55 49 42 34 26 19 12 6 3 4 5 6 11 11 9 26 35 28 24 17 28 29 26 31 25 13 9 8 12 6 5 7 37 4
65 69 73 78 80 76 88 92 84 79 74 68 65 60 52 44 35 28 21 14 8 5 6 11 17 12 12 22 22 32 17 29 16 12 15 20 21 17 16 11 8 5 5 7 10 11 35
64 68 75 80 83 84 83 91 93 84 78 68 67 64 55 46 39 32 24 17 9 10 30 18 20 30 14 6 29 38 25 13 22 26 9 23 24 21 18 15 8 7 7 13 8 14 18
54 75 71 81 85 79 83 97 99 90 80 73 71 66 59 50 42 34 29 13 11 19 29 24 27 25 14 12 10 47 35 18 24 17 7 14 26 10 5 20 16 13 12 16 15 12 10
74 80 65 79 89 87 91 77 105 93 87 78 71 68 62 53 45 38 33 20 20 22 15 14 17 18 16 20 20 35 23 19 25 33 30 22 6 7 7 27 26 9 17 14 4 10 10
109 72 72 82 91 89 89 83 109 100 91 80 75 71 64 57 46 42 35 27 23 19 9 6 5 7 8 7 12 33 18 6 10 8 8 17 14 13 18 16 17 6 21 13 9 17 5
102 73 76 85 93 94 92 88 104 102 94 86 79 74 68 60 41 49 35 30 22 14 4 2 6 9 19 14 3 29 18 40 13 7 4 6 12 22 17 13 8 7 18 9 15 14 11
87 84 74 89 100 99 97 97 108 103 96 89 83 79 73 66 43 47 37 32 26 9 5 5 7 6 9 21 13 12 22 24 16 20 22 5 4 9 14 7 6 17 4 10 10 5 6
95 97 77 89 96 100 103 108 103 107 100 91 83 77 71 65 46 50 43 37 8 6 3 9 7 7 10 7 9 12 10 13 6 8 9 7 14 6 16 5 12 19 6 4 5 7 3
92 99 73 90 96 103 105 107 110 116 103 96 93 83 74 63 46 53 54 8 7 5 7 6 9 13 8 3 6 4 6 7 11 7 7 4 6 16 25 7 3 14 9 5 4 5 6
106 81 67 108 119 110 109 112 121 114 105 105 96 85 76 61 52 59 46 6 12 12 14 17 10 8 4 5 7 5 6 5 2 2 7 9 5 4 10 14 4 6 13 2 5 5 4
107 76 74 101 120 118 110 102 132 122 114 112 107 83 69 62 59 59 9 9 6 9 16 9 8 3 8 8 5 5 3 3 6 1 3 10 9 2 3 5 24 17 6 2 6 7 5
116 70 87 98 120 124 114 112 128 125 116 115 100 45 64 60 60 35 9 8 8 11 16 7 8 9 8 10 7 5 6 3 8 6 10 9 2 3 3 7 2 6 5 12 7 3 4
96 52 86 107 117 129 118 118 142 128 125 120 76 9 60 67 17 6 9 12 12 11 10 9 11 10 9 8 7 5 9 6 16 20 5 4 6 6 5 3 10 7 6 4 3 1 3
89 70 103 105 136 128 119 120 128 138 143 101 51 24 60 68 10 7 4 7 7 9 8 6 7 7 5 10 9 8 7 7 19 12 10 13 3 7 6 6 3 3 7 8 8 4 7
95 80 116 110 114 119 121 111 145 148 135 99 40 10 21 23 13 20 14 8 10 10 9 13 13 13 10 7 7 9 9 9 14 7 12 10 5 7 5 4 5 5 8 9 3 4 8
95 77 82 98 113 124 120 113 139 137 125 100 24 10 22 14 10 18 9 9 13 10 9 15 6 10 14 9 8 9 7 9 7 17 6 3 5 4 4 5 7 5 9 14 10 7 10
82 75 105 106 116 125 116 111 130 147 123 75 29 25 21 24 45 28 8 12 13 10 12 9 15 15 9 14 14 18 16 8 8 10 6 4 7 4 4 4 2 11 14 14 13 7 14
81 63 110 102 117 114 112 104 135 150 116 69 46 62 57 20 20 21 15 17 15 28 8 20 36 15 9 12 20 43 22 26 20 15 9 6 10 6 5 6 5 6 10 15 8 10 9
83 73 117 103 111 109 109 100 140 148 107 70 75 75 29 8 18 19 20 16 26 11 17 18 44 16 14 40 50 41 31 20 16 9 12 10 7 3 4 2 3 4 8 6 15 15 20
82 84 106 105 104 105 101 115 139 125 97 74 75 62 28 10 25 17 38 22 39 31 16 22 14 26 70 52 13 10 5 3 7 4 8 5 6 5 4 4 9 5 9 11 12 10 16
85 78 94 101 100 101 93 103 136 119 91 85 77 54 33 37 25 33 24 56 15 10 7 10 39 75 40 12 5 9 11 10 10 8 9 8 6 4 4 5 9 8 8 17 12 8 15
79 80 93 95 96 97 92 101 112 85 84 78 54 44 35 23 38 67 26 38 41 21 11 16 38 19 24 4 4 6 7 6 14 18 13 8 3 10 5 8 11 12 20 26 6 4 19
81 86 94 94 92 99 92 102 122 86 79 72 57 41 31 24 40 43 35 56 45 41 15 44 18 8 6 5 6 7 6 9 6 10 13 18 14 8 6 7 14 27 23 14 12 13 17
87 86 85 92 97 100 107 101 122 84 76 64 59 46 35 35 32 32 40 50 39 51 58 54 15 40 21 7 3 6 5 4 8 8 3 11 11 10 18 11 7 65 26 33 19 22 19
Wind_Direction_850mb
230 228 229 233 213 210 212 211 210 205 203 205 200 200 198 200 197 194 196 205 210 51 11 7 356 2 38 71 47 15 13 4 353 1 15 28 49 76 96 81 76 84 95 82 90 84 92
232 228 228 231 229 210 207 209 210 208 204 202 199 197 196 194 192 191 193 194 187 120 44 10 355 8 77 78 31 12 10 359 357 13 26 46 65 90 90 75 63 78 108 117 86 83 80
232 230 225 227 233 209 207 207 207 209 205 200 198 195 193 192 196 194 194 180 146 28 21 7 341 59 82 82 30 359 359 5 0 18 48 70 67 87 101 95 75 113 82 100 30 5 144
232 229 225 223 224 211 207 205 205 208 207 200 197 195 192 191 193 194 186 168 157 139 10 334 25 95 85 70 23 345 13 43 41 46 88 83 87 67 67 106 48 68 65 64 18 10 21
231 227 225 222 221 219 214 202 203 204 207 202 194 193 193 191 191 188 175 170 152 68 360 20 73 117 93 32 14 16 20 43 72 82 89 98 65 57 46 89 81 29 85 45 89 16 75
230 230 223 220 217 215 218 204 200 202 203 201 195 191 192 189 188 183 173 163 137 82 85 87 83 84 62 42 26 20 44 42 54 136 72 53 64 72 46 50 64 37 61 67 63 52 76
232 224 224 218 216 217 210 210 195 198 199 200 195 191 189 186 185 178 170 154 148 93 73 72 89 94 107 52 33 31 27 33 67 72 73 28 81 59 42 38 55 87 83 78 119 141 76
234 221 225 216 217 213 213 205 196 195 196 198 195 190 185 184 181 177 171 183 159 137 94 80 86 84 77 50 29 29 45 73 50 82 51 75 58 360 23 52 56 66 81 57 74 130 90
232 221 225 213 215 212 212 205 196 191 193 195 194 189 183 181 178 178 177 174 151 136 84 54 66 69 67 73 45 12 42 85 63 69 67 78 14 357 36 43 28 49 51 351 309 125 96
238 227 218 216 214 211 210 206 193 190 189 192 193 188 181 177 176 179 182 175 167 160 82 327 20 55 34 98 60 26 35 82 55 86 63 63 10 36 40 47 8 61 0 327 199 179 105
235 231 214 219 212 207 204 204 194 187 185 191 188 185 181 180 179 180 180 172 163 149 95 175 60 86 70 94 173 21 43 67 77 65 148 76 29 29 35 14 358 332 333 20 135 109 132
242 233 214 214 209 203 198 201 191 185 186 188 183 181 179 179 179 175 170 160 145 55 225 128 124 133 79 45 40 47 58 82 80 68 62 70 34 40 356 10 50 325 95 68 79 83 72
252 227 217 219 207 197 196 199 192 185 186 186 180 180 180 178 175 169 160 151 69 135 11 167 150 106 90 48 58 41 49 38 49 96 57 29 35 8 23 49 31 34 57 26 45 25 33
244 223 215 213 210 194 193 195 191 184 182 183 176 178 179 179 171 168 161 79 112 159 175 131 117 95 89 85 62 59 94 71 52 68 100 81 40 11 343 32 8 45 54 82 88 352 336
237 221 207 209 197 190 191 192 184 182 181 180 169 174 176 173 172 170 165 98 189 202 153 136 105 105 110 95 120 92 52 106 60 57 123 131 103 315 45 33 299 42 53 60 90 59 258
226 229 208 207 191 187 186 187 180 180 181 174 166 165 172 171 171 170 116 152 130 164 120 122 119 142 142 150 111 85 146 250 129 311 138 167 117 244 289 290 44 72 98 123 46 22 340
222 220 211 207 191 185 185 185 183 178 179 173 159 144 168 171 166 164 152 181 155 150 127 118 127 114 133 135 127 125 136 168 170 102 84 147 97 134 236 35 46 37 63 66 104 6 336
222 201 208 198 197 186 185 189 183 180 176 167 154 110 161 160 127 139 149 160 132 132 108 99 99 111 129 134 113 130 159 193 164 146 129 175 120 107 99 101 125 106 118 98 95 176 67
226 211 204 196 180 181 183 188 185 181 177 161 135 102 160 164 137 153 128 108 120 131 136 132 115 104 115 131 117 128 130 152 153 148 170 185 47 118 145 150 151 120 135 107 94 92 194
219 205 191 197 177 179 180 183 183 176 172 156 132 118 156 186 151 141 139 157 114 95 102 100 112 98 123 102 51 137 129 167 167 140 142 134 100 173 151 155 146 155 168 158 155 194 151
206 191 189 190 182 179 180 186 184 174 171 160 141 132 155 171 194 148 123 135 126 133 120 133 87 154 138 115 110 129 141 118 111 151 114 116 126 199 86 273 200 214 206 175 196 178 216
196 183 192 185 179 175 178 180 180 179 166 169 130 142 129 142 141 135 120 189 142 137 140 174 139 144 131 148 174 175 144 155 173 180 156 127 151 157 114 47 96 258 244 211 219 189 257
188 183 186 188 181 176 174 181 186 170 169 166 150 147 153 147 151 150 179 160 169 129 43 165 143 124 127 165 172 163 142 153 165 152 155 160 164 160 184 243 332 262 221 201 201 199 203
180 188 182 179 178 176 175 180 183 171 171 167 154 152 129 151 167 169 139 140 152 147 134 143 147 113 143 127 115 113 102 109 136 134 150 152 149 120 173 211 199 173 177 204 220 246 216
178 184 177 175 175 176 172 177 178 170 171 173 163 157 140 116 148 114 140 120 118 104 91 135 125 145 138 121 96 95 35 70 213 196 177 190 148 119 186 238 307 202 184 185 192 276 235
177 175 172 172 173 174 172 174 181 168 163 159 159 164 139 121 207 160 136 150 133 119 80 105 134 140 151 95 97 157 177 182 176 169 79 100 69 124 175 240 221 209 178 165 137 267 219
172 172 170 172 173 173 174 178 180 160 155 165 140 146 145 105 152 162 161 163 146 124 104 128 151 140 160 99 124 165 188 173 169 175 166 171 162 199 181 254 275 211 153 150 184 218 212
172 165 167 172 176 177 179 172 171 155 149 155 142 146 150 100 147 172 161 160 144 143 143 151 122 193 108 121 156 181 164 201 181 168 168 177 168 185 151 214 262 164 139 195 203 207 246
163 166 167 170 175 176 178 169 177 158 140 149 139 134 140 119 143 163 175 180 181 172 142 165 160 156 161 106 181 130 153 176 181 203 135 203 196 178 201 215 211 175 183 202 214 229 252